Home   Weather   Durban   Past weeks

Flag for South Africa Past Weather in Durban, South Africa — Yesterday and Last 2 Weeks

Now
73 °F

Partly cloudy.


Feels Like: 75 °F
Forecast: 69 / 90 °F
Wind: 7 mph from West

Location: King Shaka International Airport

Current Time: Dec 7, 2016 at 10:28:04 pm

Latest Report: Dec 7, 2016 at 10:00 pm


Visibility: N/A

Pressure: 30.07 "Hg

Humidity: 74%

Dew Point: 64 °F

Location of DurbanLocation

Past Weather in Durban — Graph

°F

Durban Temperature Yesterday

Maximum temperature yesterday: 79 °F (at 3:00 pm)
Minimum temperature yesterday: 66 °F (at 3:00 am)
Average temperature yesterday: 73 °F

High & Low Weather Summary for the Past Weeks

 TemperatureHumidityPressure
High88 °F (Nov 28, 1:00 pm)100% (Nov 28, 10:00 am)30.18 "Hg (Nov 28, 10:00 am)
Low63 °F (Dec 2, 5:00 am)47% (Dec 4, 4:00 pm)29.71 "Hg (Dec 4, 4:00 am)
Average72 °F72%29.99 "Hg
* Reported Nov 22 9:00 pm — Dec 7 9:00 pm, Durban, Weather by CustomWeather, © 2016

Note: Actual official high and low records may vary slightly from our data, if they occured in-between our weather recording intervals... More about our weather records

Advertising

Durban Weather History for the Previous 24 Hours

Scroll right to see more
 ConditionsComfort  
Time TempWeatherWind HumidityBarometerVisibility
9:00 pm
Wed, Dec 7
72 °FPassing clouds.9 mph78%30.04 "HgN/A
8:00 pm72 °FLight rain. Partly cloudy.7 mph78%30.04 "HgN/A
7:00 pm73 °FMostly cloudy.13 mph69%30.01 "HgN/A
6:00 pm73 °FCloudy.16 mph74%30.01 "HgN/A
5:00 pm75 °FDrizzle. Cloudy.14 mph74%29.98 "HgN/A
4:00 pm75 °FBroken clouds.14 mph74%29.95 "HgN/A
3:00 pm77 °FBroken clouds.17 mph69%29.95 "HgN/A
2:00 pm81 °FScattered clouds.18 mph62%29.95 "HgN/A
1:00 pm79 °FPassing clouds.18 mph65%29.98 "HgN/A
12:00 pm77 °FPassing clouds.20 mph65%29.98 "HgN/A
11:00 am79 °FPassing clouds.20 mph58%29.98 "HgN/A
10:00 am79 °FPassing clouds.18 mph58%29.98 "HgN/A
9:00 am77 °FPassing clouds.17 mph65%29.98 "HgN/A
8:00 am77 °FPassing clouds.15 mph65%29.95 "HgN/A
7:00 am75 °FScattered clouds.21 mph65%29.95 "HgN/A
6:54 am75 °FScattered clouds.21 mph65%29.95 "HgN/A
6:00 am75 °FPartly sunny.16 mph74%29.92 "HgN/A
5:00 am73 °FBroken clouds.18 mph83%29.89 "HgN/A
4:00 am73 °FPassing clouds.13 mph83%29.86 "HgN/A
3:00 am73 °FPassing clouds.17 mph83%29.83 "Hg6 mi
2:00 am72 °FClear.10 mph83%29.77 "Hg6 mi
1:00 am70 °FClear.3 mph83%29.74 "Hg6 mi
12:00 am70 °FClear.1 mph88%29.74 "Hg10 mi
11:00 pm
Tue, Dec 6
72 °FClear.5 mph83%29.74 "Hg10 mi
10:00 pm72 °FClear.2 mph83%29.80 "Hg6 mi
Weather by CustomWeather, © 2016

See weather overviewHow to use our weather pages